Theta_e
319 320 320 320 320 320 321 322 322 322 323 323 324 324 324 322 317 318 318 317 317 317 317 317 317 315 319 325 322 324 321 319 328 324 326 326 328 329 332 334 334 333 331 329 328 328 328
319 319 319 319 319 320 321 321 322 322 323 323 324 324 324 323 317 318 317 314 313 313 313 313 313 312 325 321 321 327 326 328 329 325 325 325 327 331 335 333 330 328 328 327 327 327 327
318 318 319 319 320 321 322 322 322 323 323 324 324 324 324 324 316 318 317 314 314 313 312 312 312 320 322 322 326 326 324 325 325 325 325 326 334 337 332 330 327 327 327 327 327 327 328
319 319 320 321 322 322 322 323 323 323 324 324 324 324 324 324 317 318 317 314 316 314 314 314 316 326 322 319 327 325 323 325 325 327 327 331 333 332 329 328 328 327 328 329 328 327 327
321 321 322 322 322 322 322 322 323 324 324 324 324 324 324 324 318 319 317 318 317 315 316 320 328 328 326 322 326 326 324 327 328 329 328 327 330 329 328 329 328 328 328 327 327 327 327
319 319 320 321 322 322 322 319 319 321 323 323 323 324 324 324 319 317 317 318 316 318 321 324 326 330 326 326 324 324 326 326 324 326 328 328 329 330 328 328 329 328 327 327 328 327 327
316 316 317 317 314 313 313 313 316 318 319 321 322 323 323 323 319 315 319 321 326 326 321 323 325 327 326 323 321 323 325 326 323 324 325 325 326 328 327 327 327 327 328 328 328 327 328
313 310 309 307 308 304 302 304 309 313 314 315 318 320 322 322 317 317 320 322 320 320 325 321 320 321 321 321 323 323 324 325 324 326 325 325 328 327 325 326 327 328 328 330 329 327 328
306 306 305 306 304 301 301 302 303 307 310 311 312 317 320 321 317 320 321 318 317 317 326 324 322 322 323 322 324 324 324 325 325 325 325 327 327 326 327 327 329 329 329 329 329 328 329
304 302 301 301 301 301 301 302 302 303 305 307 308 313 318 321 323 319 322 317 319 318 330 325 324 324 322 323 324 324 324 325 325 325 324 326 326 326 328 327 328 330 326 327 327 329 330
307 306 305 303 302 301 301 301 302 302 304 305 306 309 317 321 322 321 319 319 318 318 333 325 324 322 323 324 324 323 323 324 325 325 325 327 326 326 327 327 326 328 326 327 327 328 329
307 307 306 304 303 302 302 302 302 302 303 304 306 309 317 323 320 319 319 320 319 330 332 325 324 323 323 324 323 323 324 324 325 325 325 325 325 326 327 326 326 326 328 329 329 328 330
306 306 306 306 304 302 301 302 302 302 303 304 306 310 319 319 324 320 321 323 330 331 327 325 325 325 325 325 325 324 325 325 326 327 327 327 327 326 326 328 327 328 328 330 330 330 330
305 305 305 306 305 304 302 301 302 302 303 304 306 313 320 320 319 320 322 327 331 329 327 325 325 326 326 326 327 324 325 327 326 326 327 329 330 327 326 327 328 328 328 330 330 329 329
304 304 305 305 305 305 304 302 301 302 303 305 309 318 322 321 320 318 325 327 328 328 326 326 325 327 328 327 327 326 327 327 327 327 329 329 329 326 326 327 327 330 331 327 330 332 332
304 304 304 304 304 304 304 303 301 302 303 308 316 318 323 321 321 320 325 323 327 325 325 325 328 327 329 328 328 328 328 327 327 326 328 330 330 327 326 326 327 329 328 331 331 333 332
303 304 304 304 304 304 304 304 303 303 303 311 318 320 322 321 318 325 324 325 325 324 324 326 327 327 328 328 328 329 329 327 327 327 328 329 330 330 328 330 329 329 330 330 328 330 331
303 303 303 303 303 304 304 304 303 307 305 315 320 318 321 321 325 324 324 325 316 325 324 323 325 326 327 327 329 329 329 329 327 327 329 329 329 331 330 328 326 328 329 329 330 331 330
302 302 302 303 303 303 304 304 304 308 309 310 320 320 321 322 321 323 325 325 325 326 325 325 325 325 325 327 329 328 328 326 326 327 329 329 329 331 331 329 328 328 328 329 329 329 330
302 302 302 302 302 302 303 304 304 307 309 312 322 321 326 325 325 326 325 325 326 324 325 325 325 324 325 326 327 328 328 325 325 326 324 323 328 330 328 329 329 329 327 327 328 329 327
303 303 302 302 302 302 302 303 303 307 309 313 321 323 324 328 327 327 326 325 325 325 325 324 325 324 325 327 327 327 326 324 323 326 325 326 328 327 327 325 324 324 325 324 325 326 326
303 303 302 302 302 302 302 303 303 307 310 316 320 324 323 323 327 328 322 326 325 325 326 326 326 324 324 326 326 327 325 325 325 325 325 325 326 325 326 323 323 323 323 323 322 323 323
302 302 302 302 302 302 302 302 302 304 310 315 316 317 320 319 321 323 324 326 325 325 325 324 325 325 324 324 323 324 323 324 324 325 325 325 323 325 324 322 322 323 323 323 323 324 327
301 302 302 302 302 302 302 302 302 303 306 310 313 316 318 316 319 319 323 323 324 326 327 324 324 325 324 323 322 322 322 323 323 324 323 324 327 326 325 325 326 327 329 331 330 331 334
301 301 302 302 302 302 301 302 302 302 304 308 310 314 316 316 316 319 321 322 323 325 325 325 324 323 323 323 325 325 325 325 324 323 325 324 328 326 328 326 325 324 329 332 334 333 334
303 302 301 302 302 302 301 301 301 302 303 307 309 312 313 316 314 316 319 319 321 321 322 323 323 322 322 324 324 326 326 324 324 324 324 325 329 328 327 329 327 334 336 333 334 335 333
303 303 301 301 301 301 301 302 301 301 302 304 308 311 312 314 314 316 319 322 321 320 320 322 322 323 322 324 323 323 323 323 325 324 329 327 329 328 326 327 326 333 334 333 336 338 333
303 303 302 301 301 301 301 302 301 301 301 303 307 309 311 312 313 313 316 318 320 322 323 323 322 322 323 323 322 323 323 324 324 323 324 325 328 329 330 331 331 333 334 335 335 334 333
303 303 302 301 301 300 301 302 302 300 301 301 306 308 311 311 311 311 311 312 314 316 320 321 322 324 323 323 322 323 323 323 325 324 325 328 327 328 328 331 333 329 329 329 330 333 334
Wind_Speed
19 20 21 22 23 24 25 25 27 29 30 31 32 33 34 37 29 19 20 20 14 9 7 4 5 6 4 6 5 4 6 19 21 11 14 10 9 7 8 4 4 10 9 7 10 12 11
18 19 20 22 23 24 25 26 27 28 30 31 31 33 35 39 28 20 22 12 10 7 4 4 9 9 4 5 3 6 13 19 14 11 10 8 4 4 2 4 7 6 10 12 6 2 2
18 19 20 22 23 24 25 26 27 29 30 31 33 34 35 39 28 20 19 9 9 7 7 7 9 3 4 7 4 10 13 7 13 9 6 7 4 8 0 5 2 8 10 4 2 2 3
18 19 20 21 23 24 26 27 28 29 30 31 33 34 35 37 26 20 16 7 6 7 7 7 3 2 4 4 6 11 8 7 8 4 3 4 5 5 6 2 6 5 5 8 8 5 4
18 19 20 21 23 24 26 27 29 31 31 32 34 35 35 36 23 18 15 3 4 5 5 2 1 5 8 5 4 8 10 4 8 5 5 3 6 4 6 9 7 5 0 1 5 3 4
20 21 21 21 22 24 26 27 29 31 32 33 34 35 35 36 19 15 13 2 2 1 2 3 5 5 7 6 6 6 9 7 4 8 7 7 6 7 6 8 1 3 2 2 0 4 3
18 19 21 22 24 25 26 28 28 31 33 34 34 35 35 36 16 14 9 2 4 5 4 4 3 3 5 1 4 8 9 10 6 7 6 5 8 3 5 3 4 4 5 4 3 3 4
18 18 21 24 23 26 27 29 28 30 33 34 34 35 35 35 10 11 8 4 5 4 3 2 3 5 5 2 5 9 11 10 7 5 5 7 2 3 2 3 5 4 5 2 2 1 8
18 19 20 21 22 25 27 29 29 31 33 34 34 35 35 33 5 7 9 7 5 2 5 3 1 1 2 8 5 12 12 4 4 5 6 4 9 5 4 4 6 2 6 4 8 7 9
18 19 20 22 23 24 26 29 30 31 33 33 33 34 34 29 2 5 2 7 9 5 5 7 6 5 7 4 6 4 9 3 4 2 4 2 4 1 0 3 6 3 5 7 10 10 8
20 21 22 22 23 24 26 29 30 31 32 33 32 32 31 17 7 3 6 11 2 4 5 6 7 4 4 5 6 6 6 6 4 5 6 7 3 3 4 3 5 6 8 9 12 13 10
20 21 22 24 25 25 26 28 30 32 33 32 31 30 27 9 2 4 9 7 4 6 3 6 5 6 9 6 5 6 6 4 2 4 3 3 2 2 3 1 2 8 9 13 8 9 10
20 21 23 24 26 26 26 27 29 31 33 33 31 28 16 3 5 10 9 4 5 6 4 6 5 5 5 5 7 6 10 10 7 8 9 6 6 6 2 8 7 9 10 7 5 6 3
19 21 22 24 26 28 28 27 28 32 32 32 30 21 5 3 8 7 6 5 6 3 1 3 2 6 7 4 4 6 8 8 3 7 3 6 8 7 1 4 6 4 7 5 7 6 6
19 20 21 23 26 27 29 29 28 30 31 32 27 9 3 5 5 6 6 7 3 1 0 3 6 9 7 6 3 7 3 2 2 2 5 4 4 5 3 1 5 5 2 5 8 7 8
18 19 21 23 25 27 30 31 29 31 30 26 16 8 2 9 4 7 5 5 2 2 3 5 8 4 9 6 8 8 8 3 6 2 2 3 6 6 5 4 3 6 3 6 4 7 9
18 19 21 23 24 26 28 31 30 32 30 18 6 4 3 9 3 5 6 0 3 2 2 4 4 5 4 4 4 4 4 5 1 4 2 2 4 8 5 9 4 6 9 3 6 5 8
18 19 21 23 24 25 27 29 30 31 33 16 6 4 5 7 5 1 5 1 0 2 2 4 4 3 6 4 5 5 7 2 2 1 3 2 5 9 7 6 2 6 5 7 6 5 8
17 18 19 21 23 24 26 27 28 24 26 12 6 4 3 4 5 6 4 4 2 3 0 3 6 4 4 5 4 4 5 4 2 1 0 2 4 8 11 10 8 9 8 9 7 7 12
17 18 18 20 22 24 24 26 27 22 23 8 4 3 3 2 2 6 4 5 5 2 2 2 1 5 7 7 4 6 7 5 2 4 2 1 8 9 12 13 8 10 12 11 12 9 15
15 16 17 18 19 21 23 25 27 22 19 3 1 3 4 1 4 3 4 2 8 7 2 2 5 5 8 8 8 7 5 6 6 6 4 4 9 12 12 14 16 16 18 16 19 20 19
14 15 15 17 17 18 20 22 24 21 13 3 4 4 2 4 3 5 4 6 8 4 4 5 7 1 4 8 7 6 7 5 5 7 6 2 9 11 15 17 17 20 20 21 22 21 20
13 14 15 15 16 15 16 18 20 20 12 4 4 2 4 1 3 5 5 4 5 3 4 2 4 6 8 5 4 3 5 2 3 6 6 6 8 7 14 7 9 13 19 18 14 11 12
12 13 12 12 14 15 15 15 16 16 13 4 5 7 4 5 4 5 2 4 6 2 6 2 5 5 6 7 4 6 9 8 8 9 8 8 7 8 9 6 13 4 2 2 6 9 5
12 12 10 10 11 11 13 13 14 14 11 5 4 5 3 6 5 7 10 10 8 7 9 8 7 4 6 6 7 9 10 12 14 7 9 9 7 7 7 10 11 12 9 5 5 10 3
13 12 11 10 10 10 9 10 10 11 9 5 4 2 4 5 2 5 8 8 9 11 11 12 8 6 6 7 9 15 12 7 5 9 6 7 6 8 8 9 11 6 6 1 2 8 5
14 12 10 9 9 10 9 7 9 8 8 5 4 2 4 5 8 8 7 5 5 7 8 3 4 8 7 10 12 12 14 13 13 13 8 10 10 12 11 10 8 6 4 3 7 4 6
15 13 10 11 9 9 10 8 7 8 7 4 6 5 4 4 10 13 10 9 10 6 7 6 7 8 7 11 12 11 10 9 12 14 10 11 9 8 8 10 12 7 4 6 8 9 8
15 13 11 11 11 10 10 9 7 8 6 6 6 4 6 6 9 15 16 20 19 19 10 7 10 4 4 5 6 6 10 5 9 11 9 11 10 7 5 2 5 2 4 8 9 11 9
Wind_Direction
17 16 15 14 13 11 10 9 7 5 4 3 2 3 2 1 359 356 346 335 333 323 312 274 205 176 154 203 84 3 106 148 154 170 186 194 198 225 235 236 241 251 292 299 294 297 294
13 12 11 10 9 8 6 5 4 3 2 360 0 1 1 1 358 357 350 360 12 20 44 111 138 153 227 169 95 118 129 146 172 180 188 213 232 243 253 249 264 349 291 291 293 342 157
9 8 8 7 5 4 4 1 1 1 359 1 359 359 0 0 358 359 359 14 23 45 78 113 135 146 242 82 120 149 146 162 172 191 191 204 222 223 143 247 271 282 282 165 128 13 99
5 4 4 2 1 0 0 359 359 358 359 357 357 358 359 360 356 358 3 10 27 66 94 115 129 228 69 120 124 160 170 142 177 211 224 178 223 269 266 325 237 261 250 183 99 339 55
1 359 358 356 355 355 356 356 357 356 356 356 355 356 357 357 354 351 355 20 47 74 107 76 223 269 122 159 192 181 188 188 166 165 154 154 218 263 213 240 205 214 119 279 133 91 328
3 360 355 352 351 352 353 353 354 355 355 354 353 353 354 353 353 352 352 316 339 346 303 265 258 230 158 132 123 141 183 170 161 153 168 212 221 226 202 241 327 353 286 129 246 68 233
354 354 351 352 354 352 352 351 352 354 354 353 351 351 352 352 352 358 1 256 230 179 211 340 18 318 106 73 194 181 173 187 190 217 222 197 232 207 23 327 333 305 299 305 116 82 259
346 346 345 347 352 351 351 350 349 351 352 352 350 349 350 352 358 3 14 50 40 340 298 197 277 262 249 269 174 152 172 199 205 200 189 203 175 59 273 289 252 243 278 36 203 151 270
348 347 346 345 346 349 349 349 349 349 350 350 349 348 348 351 359 31 53 56 337 248 258 125 173 200 147 200 198 161 195 186 219 190 207 290 74 113 193 174 214 143 330 354 325 311 241
356 353 351 349 350 350 349 348 348 347 348 347 347 346 347 350 38 350 53 343 328 212 237 134 159 126 163 229 169 147 206 261 194 66 182 176 103 67 164 64 306 270 3 301 296 297 300
1 359 355 351 349 348 347 346 346 345 345 344 344 343 344 348 315 327 336 330 309 222 220 140 127 118 159 246 115 155 188 220 214 133 238 99 184 201 241 60 335 14 318 308 301 280 283
1 359 356 354 351 348 345 344 343 342 342 341 341 341 339 347 298 324 323 321 215 231 167 145 149 175 188 181 140 133 177 210 326 220 232 85 162 282 34 191 298 310 260 250 261 263 239
360 358 357 355 354 351 346 343 343 340 341 338 337 338 335 331 346 319 319 228 236 253 149 152 154 196 201 158 154 207 185 188 222 201 191 166 160 126 336 248 192 307 317 292 238 207 336
358 358 357 356 354 353 350 346 343 340 340 336 334 333 318 302 312 324 285 235 251 46 189 124 195 180 206 175 155 175 194 189 185 253 243 244 176 190 31 11 336 4 325 322 300 302 322
356 356 356 355 355 354 352 350 348 341 340 337 335 330 251 348 317 315 274 236 340 200 41 221 182 212 165 159 250 183 218 158 88 260 263 218 179 133 93 4 292 100 295 358 278 211 259
353 354 354 354 355 354 353 352 353 346 343 341 330 312 206 331 297 273 253 273 187 356 310 226 235 253 209 175 206 215 187 147 139 90 301 99 263 182 135 219 112 336 71 237 199 277 294
350 351 352 353 354 354 354 354 359 352 347 348 305 286 80 343 268 240 253 93 193 114 312 236 211 195 222 196 260 195 166 125 171 129 305 251 257 153 186 210 317 177 208 252 293 279 304
348 350 353 353 353 353 354 354 358 359 355 10 317 253 16 339 244 237 234 200 316 221 205 221 265 262 225 191 198 200 190 20 78 263 236 79 276 271 293 71 295 275 289 274 292 281 263
341 345 348 351 353 353 353 354 356 3 11 333 325 296 325 312 248 212 151 184 254 250 218 213 198 250 213 194 192 205 153 102 85 243 343 155 256 263 222 183 195 229 230 261 276 281 266
333 339 342 343 347 350 352 353 352 357 356 346 294 276 158 200 330 298 216 206 202 158 204 305 250 215 190 196 213 179 182 142 118 94 27 210 271 267 283 325 336 276 265 247 263 275 288
317 325 334 339 341 345 351 351 350 353 353 336 278 65 357 15 115 301 256 353 232 210 207 252 191 246 218 211 210 214 196 169 176 139 208 271 269 281 268 282 280 272 269 270 270 268 272
310 313 321 330 336 340 348 351 350 354 360 286 319 331 319 282 280 265 161 207 245 185 258 184 256 197 210 239 234 222 232 225 264 163 249 231 279 277 275 273 266 269 265 265 266 271 279
305 310 311 320 331 337 344 350 354 360 21 336 11 284 281 138 236 243 245 251 227 259 179 317 319 276 219 106 325 327 293 308 311 280 273 269 283 261 278 298 294 260 251 254 263 267 277
291 301 301 311 321 334 339 347 354 360 20 336 9 298 271 258 245 259 315 271 239 267 299 279 297 254 53 314 272 248 242 237 237 240 247 247 242 260 265 277 254 66 95 328 280 288 276
291 288 299 297 308 315 329 339 347 353 357 345 322 326 293 268 292 272 254 256 255 246 261 276 269 348 310 276 240 233 234 237 240 244 214 222 230 257 253 250 286 268 183 230 255 297 28
285 287 290 302 293 291 310 327 335 343 340 330 299 291 297 299 254 317 279 274 268 256 251 249 240 280 281 257 228 240 235 241 204 174 218 199 240 254 250 271 277 66 121 111 309 253 114
279 280 276 288 308 299 288 297 320 328 331 324 262 301 268 258 279 284 273 331 292 272 274 295 245 234 233 242 240 238 240 234 238 236 184 211 228 238 238 253 263 67 107 145 244 40 347
273 272 272 264 282 296 280 277 305 318 325 311 262 232 226 258 285 287 285 274 257 245 271 66 255 206 239 235 246 245 243 229 230 253 248 235 233 225 234 257 249 111 161 259 356 324 299
268 268 256 264 266 286 277 270 266 309 304 301 268 232 237 233 286 299 277 267 266 280 290 272 273 310 319 267 236 262 241 240 247 250 187 246 244 298 247 9 93 338 325 316 300 286 286